Notices

What's New in latest Release from April 7th, 2021:

- Updated Glossary, including Speed of Maximum Gust, and Total Hourly Precipitation

- Updated national and regional climate services offices contacts and prices information

- Addition of station inventory lists for 1981-2010, 1971-2000, and 1961-1990 Normals.

If you haven't already, please take our survey and provide feedback about our website: https://eccc.sondage-survey.ca/f/LanguageSelection.aspx?s=442ca660-fcf1-47c0-95a9-59707d6fd709

Hourly Data Report for September 13, 2019

TORONTO CITY
ONTARIO
Current Station Operator: ECCC - MSC

43°40'00.000" N
79°24'00.000" W
112.50 m
6158355
71508
XTO

Download Data

Hourly Data (September 2019)
Hourly Data Report for September 13, 2019
TIME
LST
Temp Definition
°C
Dew Point Definition
°C
Rel Hum Definition
%
Precip. Amount Definition
mm

Wind Dir Definition
10's deg

Wind Spd Definition
km/h
Visibility Definition
km
Stn Press Definition
kPa
Hmdx Definition


Wind Chill Definition


Weather Definition


00:00 15.8 10.0 68 0.0       101.32     LegendNANA
01:00 17.0 8.4 57 0.0       101.30     LegendNANA
02:00 17.3 9.0 58 0.0       101.23     LegendNANA
03:00 15.7 10.5 71 0.0       101.18     LegendNANA
04:00 16.4 10.3 67 0.0       101.17     LegendNANA
05:00 16.2 10.9 71 0.0       101.17     LegendNANA
06:00 15.9 11.2 74 0.0       101.18     LegendNANA
07:00 16.5 10.4 67 0.0       101.17     LegendNANA
08:00 16.8 8.8 59 0.0       101.13     LegendNANA
09:00 16.6 10.4 67 0.0       101.11     LegendNANA
10:00 16.6 12.0 74 0.0       101.06     LegendNANA
11:00 16.8 11.9 73 0.0       100.99     LegendNANA
12:00 18.1 12.8 71 0.0       100.95     LegendNANA
13:00 17.4 14.3 82 0.5       100.85     LegendNANA
14:00 18.5 15.6 83 0.0       100.75     LegendNANA
15:00 19.9 15.8 78 0.0       100.63     LegendNANA
16:00 20.4 16.1 76 0.0       100.54 25   LegendNANA
17:00 20.8 16.4 76 0.0       100.48 26   LegendNANA
18:00 21.4 16.1 72 0.0       100.37 26   LegendNANA
19:00 20.8 15.8 73 0.0       100.32 25   LegendNANA
20:00 20.0 15.4 75 0.0       100.26     LegendNANA
21:00 19.8 15.2 75 0.0       100.35     LegendNANA
22:00 18.5 16.5 88 3.7       100.31     LegendNANA
23:00 18.9 16.7 87 0.0       100.26     LegendNANA

Notes on Data Quality.

Legend

  • E = Estimated
  • M = Missing
  • NA = Not Available*
  • [empty] = Indicates an unobserved value
Date modified: